Back to catalog

DELTA 1 DEB

AliveLEO
NORAD 10764·DEBRIS·🇺🇸 United States

Launched Jul 29, 1976 from Vandenberg Space Force Base

Loading…

Next Passes (next 24 hours)

TLE

FreshSource: Space-Track

Epoch: Sep 14, 2026, 19:55 UTC

1 10764U 76077BM  26257.83055243 -.00000171  00000-0 -14148-2 0  9998
2 10764 102.1585  19.1065 0226283 172.8687 343.0984 12.04704100205395

Track DELTA 1 DEB in real time with AllMySat

Download on the App Store